When you browse on this site, cookies collect data to enhance your experience and personalize the content and advertising you see.
Visit our Privacy Policy to learn more. By continuing to use the site, you agree to this use of cookies and data.
  • In Romania
  • List of Countries
  • For 7 days
  • Water Temperature
  • Satellite Maps
  • Weather Map
  • Weather Widgets
  • user-avatar
    Login

    Hourly Weather Lyubitelskiy

    Today, 16 January, Wednesday

    Time Temperature Precipitation Wind Pressure Humidity
    00:00 -1°C° 0 mm 3 mps 718 mmHg 83%
    01:00 -1°C° 0 mm 3 mps 718 mmHg 80%
    02:00 +1°C° 0 mm 2 mps 718 mmHg 77%
    03:00 0°C° 0 mm 0 mps 717 mmHg 82%
    04:00 +1°C° 0 mm 0 mps 717 mmHg 77%
    05:00 +3°C° 0 mm 1 mps 717 mmHg 72%
    06:00 +3°C° 0 mm 1 mps 717 mmHg 68%
    07:00 +4°C° 0 mm 1 mps 717 mmHg 64%
    08:00 +5°C° 0 mm 1 mps 717 mmHg 61%
    09:00 +5°C° 0 mm 1 mps 717 mmHg 58%
    10:00 +5°C° 0 mm 2 mps 718 mmHg 58%
    11:00 +5°C° 0 mm 4 mps 719 mmHg 58%
    12:00 +6°C° 0 mm 5 mps 719 mmHg 58%
    13:00 +3°C° 0 mm 6 mps 720 mmHg 65%
    14:00 +2°C° 0 mm 7 mps 721 mmHg 71%
    15:00 -1°C° 0 mm 8 mps 721 mmHg 78%
    16:00 -2°C° 0 mm 7 mps 722 mmHg 79%
    17:00 -2°C° 0 mm 6 mps 723 mmHg 80%
    18:00 -2°C° 0 mm 5 mps 724 mmHg 82%
    19:00 -2°C° 0.1 mm 5 mps 724 mmHg 81%
    20:00 -2°C° 0.1 mm 4 mps 725 mmHg 80%
    21:00 -3°C° 0.1 mm 4 mps 725 mmHg 79%
    22:00 -3°C° 0 mm 4 mps 726 mmHg 78%
    23:00 -2°C° 0 mm 3 mps 726 mmHg 77%

    Tomorrow, 17 January, Thursday

    Time Temperature Precipitation Wind Pressure Humidity
    00:00 -2°C° 0 mm 3 mps 726 mmHg 75%
    01:00 -2°C° 0 mm 2 mps 727 mmHg 76%
    02:00 -2°C° 0 mm 2 mps 727 mmHg 77%
    03:00 -2°C° 0 mm 2 mps 727 mmHg 77%
    04:00 0°C° 0.1 mm 1 mps 728 mmHg 77%
    05:00 0°C° 0.1 mm 1 mps 728 mmHg 77%
    06:00 -1°C° 0.1 mm 0 mps 729 mmHg 76%
    07:00 -1°C° 0 mm 0 mps 729 mmHg 75%
    08:00 0°C° 0 mm 1 mps 730 mmHg 74%
    09:00 0°C° 0 mm 1 mps 730 mmHg 73%
    10:00 +1°C° 0 mm 1 mps 731 mmHg 68%
    11:00 +2°C° 0 mm 1 mps 731 mmHg 64%
    12:00 +2°C° 0 mm 1 mps 731 mmHg 60%
    13:00 +2°C° 0 mm 1 mps 731 mmHg 60%
    14:00 +3°C° 0 mm 1 mps 731 mmHg 60%
    15:00 +2°C° 0 mm 2 mps 731 mmHg 59%
    16:00 +1°C° 0 mm 2 mps 732 mmHg 67%
    17:00 -1°C° 0 mm 2 mps 732 mmHg 74%
    18:00 -2°C° 0 mm 2 mps 733 mmHg 81%
    19:00 -2°C° 0 mm 2 mps 733 mmHg 81%
    20:00 -1°C° 0 mm 1 mps 734 mmHg 82%
    21:00 -1°C° 0 mm 1 mps 734 mmHg 82%
    22:00 0°C° 0 mm 1 mps 734 mmHg 79%
    23:00 -1°C° 0 mm 0 mps 734 mmHg 77%

    Day after tomorrow, 18 January, Friday

    Time Temperature Precipitation Wind Pressure Humidity
    00:00 -1°C° 0 mm 0 mps 735 mmHg 74%
    01:00 -1°C° 0 mm 0 mps 735 mmHg 71%
    02:00 -1°C° 0 mm 0 mps 735 mmHg 69%
    03:00 -1°C° 0 mm 0 mps 735 mmHg 67%
    04:00 -1°C° 0 mm 0 mps 735 mmHg 65%
    05:00 -1°C° 0 mm 0 mps 735 mmHg 63%
    06:00 -1°C° 0 mm 0 mps 735 mmHg 61%
    07:00 0°C° 0 mm 0 mps 736 mmHg 58%
    08:00 0°C° 0 mm 0 mps 736 mmHg 54%
    09:00 +1°C° 0 mm 0 mps 736 mmHg 51%
    10:00 +2°C° 0 mm 0 mps 736 mmHg 47%
    11:00 +3°C° 0 mm 0 mps 735 mmHg 43%
    12:00 +4°C° 0 mm 0 mps 735 mmHg 39%
    13:00 +5°C° 0 mm 1 mps 735 mmHg 41%
    14:00 +5°C° 0 mm 1 mps 734 mmHg 43%
    15:00 +5°C° 0 mm 2 mps 734 mmHg 45%
    16:00 +3°C° 0 mm 2 mps 734 mmHg 52%
    17:00 +2°C° 0 mm 2 mps 734 mmHg 59%
    18:00 +1°C° 0 mm 1 mps 735 mmHg 66%
    19:00 +1°C° 0 mm 1 mps 735 mmHg 65%
    20:00 +1°C° 0 mm 1 mps 735 mmHg 65%
    21:00 0°C° 0 mm 0 mps 735 mmHg 64%
    22:00 0°C° 0 mm 0 mps 734 mmHg 62%
    23:00 0°C° 0 mm 0 mps 734 mmHg 59%

    19 January, Saturday

    Time Temperature Precipitation Wind Pressure Humidity
    00:00 0°C° 0 mm 0 mps 734 mmHg 57%
    01:00 0°C° 0 mm 0 mps 734 mmHg 54%
    02:00 0°C° 0 mm 0 mps 734 mmHg 51%
    03:00 0°C° 0 mm 0 mps 734 mmHg 48%
    04:00 +1°C° 0 mm 1 mps 734 mmHg 45%
    05:00 +1°C° 0 mm 1 mps 734 mmHg 41%
    06:00 +1°C° 0 mm 1 mps 734 mmHg 38%
    07:00 +2°C° 0 mm 1 mps 734 mmHg 35%
    08:00 +2°C° 0 mm 1 mps 734 mmHg 33%
    09:00 +3°C° 0 mm 1 mps 734 mmHg 30%
    10:00 +4°C° 0 mm 1 mps 734 mmHg 28%
    11:00 +6°C° 0 mm 1 mps 734 mmHg 26%
    12:00 +7°C° 0 mm 1 mps 734 mmHg 23%
    13:00 +6°C° 0 mm 0 mps 734 mmHg 27%
    14:00 +6°C° 0 mm 0 mps 734 mmHg 31%
    15:00 +6°C° 0 mm 0 mps 734 mmHg 35%
    16:00 +5°C° 0 mm 0 mps 734 mmHg 37%
    17:00 +4°C° 0 mm 0 mps 734 mmHg 40%
    18:00 +3°C° 0 mm 0 mps 734 mmHg 42%
    19:00 +2°C° 0 mm 0 mps 734 mmHg 43%
    20:00 +2°C° 0 mm 0 mps 734 mmHg 44%
    21:00 +2°C° 0 mm 0 mps 734 mmHg 45%
    22:00 +2°C° 0 mm 0 mps 734 mmHg 45%
    23:00 +2°C° 0 mm 0 mps 735 mmHg 45%

    20 January, Sunday

    Time Temperature Precipitation Wind Pressure Humidity
    00:00 +2°C° 0 mm 0 mps 735 mmHg 45%
    01:00 +2°C° 0 mm 0 mps 735 mmHg 46%
    02:00 +2°C° 0 mm 0 mps 735 mmHg 46%
    03:00 +2°C° 0 mm 0 mps 735 mmHg 47%
    04:00 +2°C° 0 mm 0 mps 735 mmHg 48%
    05:00 +2°C° 0 mm 0 mps 735 mmHg 50%
    06:00 +2°C° 0 mm 0 mps 735 mmHg 51%
    07:00 +2°C° 0 mm 0 mps 736 mmHg 54%
    08:00 +3°C° 0 mm 1 mps 736 mmHg 57%
    09:00 +3°C° 0 mm 1 mps 736 mmHg 59%
    10:00 +4°C° 0 mm 1 mps 736 mmHg 60%
    11:00 +3°C° 0 mm 2 mps 735 mmHg 61%
    12:00 +4°C° 0 mm 2 mps 735 mmHg 62%
    13:00 +4°C° 0 mm 2 mps 735 mmHg 63%
    14:00 +4°C° 0 mm 2 mps 735 mmHg 64%
    15:00 +3°C° 0 mm 3 mps 734 mmHg 66%
    16:00 +3°C° 0 mm 2 mps 734 mmHg 72%
    17:00 +2°C° 0 mm 2 mps 735 mmHg 77%
    18:00 +1°C° 0 mm 2 mps 735 mmHg 83%
    19:00 +1°C° 0 mm 2 mps 735 mmHg 84%
    20:00 -1°C° 0 mm 2 mps 735 mmHg 84%
    21:00 -1°C° 0 mm 2 mps 735 mmHg 85%
    22:00 -1°C° 0 mm 2 mps 734 mmHg 84%
    23:00 -1°C° 0 mm 2 mps 734 mmHg 83%

    21 January, Monday

    Time Temperature Precipitation Wind Pressure Humidity
    00:00 -1°C° 0 mm 2 mps 734 mmHg 82%
    01:00 -1°C° 0 mm 2 mps 734 mmHg 81%
    02:00 -1°C° 0 mm 2 mps 734 mmHg 80%
    03:00 -1°C° 0 mm 2 mps 733 mmHg 80%
    04:00 -1°C° 0 mm 2 mps 733 mmHg 78%
    05:00 -1°C° 0 mm 2 mps 733 mmHg 77%
    06:00 -1°C° 0 mm 2 mps 733 mmHg 75%
    07:00 -1°C° 0 mm 2 mps 732 mmHg 72%
    08:00 +1°C° 0 mm 2 mps 732 mmHg 68%
    09:00 +2°C° 0 mm 1 mps 732 mmHg 64%
    10:00 +3°C° 0 mm 2 mps 731 mmHg 57%
    11:00 +4°C° 0 mm 2 mps 731 mmHg 51%
    12:00 +6°C° 0 mm 2 mps 730 mmHg 44%
    13:00 +6°C° 0 mm 2 mps 730 mmHg 46%
    14:00 +6°C° 0 mm 2 mps 729 mmHg 47%
    15:00 +7°C° 0 mm 2 mps 729 mmHg 49%
    16:00 +5°C° 0 mm 2 mps 729 mmHg 53%
    17:00 +5°C° 0 mm 1 mps 729 mmHg 57%
    18:00 +4°C° 0 mm 1 mps 729 mmHg 61%
    19:00 +4°C° 0 mm 1 mps 729 mmHg 59%
    20:00 +4°C° 0 mm 1 mps 729 mmHg 58%
    21:00 +5°C° 0 mm 1 mps 729 mmHg 57%
    22:00 +3°C° 0 mm 2 mps 729 mmHg 66%
    23:00 +2°C° 0 mm 3 mps 729 mmHg 74%
    Show more